Weather History for Salt Lake City, UT

Change the Weather History Date:

Friday, August 29, 2014

  Actual Average Record
Temperature  
Mean Temperature 75 °F 74 °F  
Max Temperature 89 °F 87 °F 99 °F (1948)
Min Temperature 60 °F 60 °F 37 °F (1964)
Degree Days  
Heating Degree Days 0 0  
Month to date heating degree days 1 0  
Since 1 June heating degree days 40 48  
Since 1 July heating degree days 1 2  
Cooling Degree Days 10 9  
Month to date cooling degree days 282 357  
Year to date cooling degree days 1039 1019  
Since 1 June cooling degree days 977 969  
Growing Degree Days 24 (Base 50)    
Moisture  
Dew Point 43 °F    
Average Humidity 40    
Maximum Humidity 64    
Minimum Humidity 15    
Precipitation  
Precipitation 0.00 in 0.03 in 0.91 in (1957)
Month to date precipitation 1.77 0.63  
Year to date precipitation 9.94 10.45  
Snow  
Snow 0.00 in 0.00 in - ()
Month to date snowfall 0.0 0.0  
Since 1 July snowfall 0.0 0.0  
Snow Depth 0.00 in    
Sea Level Pressure  
Sea Level Pressure 29.88 in    
Wind  
Wind Speed 9 mph (SSE)    
Max Wind Speed 16 mph    
Max Gust Speed 19 mph    
Visibility 10 miles    
Events      
T = Trace of Precipitation, MM = Missing Value Source: NWS Daily Summary

Daily Weather History Graph

Daily Weather History Graph

Search for Another Location

Airport:

Trip Planner

Search our weather history database for the weather conditions in past years. The results will help you decide how hot, cold, wet, or windy it might be!

Date:

Astronomy

Aug. 29, 2014 Rise Set
Actual Time 6:51 AM MDT 8:04 PM MDT
Civil Twilight 6:23 AM MDT 8:33 PM MDT
Nautical Twilight 5:49 AM MDT 9:06 PM MDT
Astronomical Twilight 5:14 AM MDT 9:42 PM MDT
Moon 10:46 AM MDT (8/29) 10:02 PM MDT (8/29)
Length of Visible Light 14h 09m
Length of Day
13h 12m
Waxing Crescent, 15% of the Moon is Illuminated
Aug 29
Waxing Crescent
Sep 2
First Quarter
Sep 8
Full
Sep 15
Last Quarter
Sep 24
New

Hourly Weather History & Observations

Time (MDT) Temp. Dew Point Humidity Pressure Visibility Wind Dir Wind Speed Gust Speed Precip Events Conditions
12:53 AM 66.0 °F 46.0 °F 48% 29.94 in 10.0 mi SE 8.1 mph - N/A   Clear
1:53 AM 64.9 °F 41.0 °F 42% 29.92 in 10.0 mi SSE 9.2 mph - N/A   Clear
2:53 AM 64.9 °F 44.1 °F 47% 29.92 in 10.0 mi SE 9.2 mph - N/A   Clear
3:53 AM 64.0 °F 46.9 °F 54% 29.92 in 10.0 mi SSE 9.2 mph - N/A   Clear
4:53 AM 63.0 °F 45.0 °F 52% 29.92 in 10.0 mi South 8.1 mph - N/A   Clear
5:53 AM 62.1 °F 46.9 °F 58% 29.93 in 10.0 mi SE 9.2 mph - N/A   Clear
6:53 AM 61.0 °F 48.9 °F 64% 29.94 in 10.0 mi SE 8.1 mph - N/A   Partly Cloudy
7:53 AM 64.0 °F 48.9 °F 58% 29.95 in 10.0 mi SSE 9.2 mph - N/A   Mostly Cloudy
8:53 AM 68.0 °F 48.2 °F 49% 30.10 in 10.0 mi SSE 8.1 mph - N/A   Scattered Clouds
9:53 AM 72.0 °F 48.0 °F 43% 29.96 in 10.0 mi SSE 10.4 mph - N/A   Scattered Clouds
10:53 AM 77.0 °F 44.1 °F 31% 29.95 in 10.0 mi SSE 11.5 mph - N/A   Partly Cloudy
11:53 AM 81.0 °F 46.0 °F 29% 29.92 in 10.0 mi SSE 11.5 mph - N/A   Partly Cloudy
12:53 PM 84.0 °F 43.0 °F 24% 29.90 in 10.0 mi South 12.7 mph - N/A   Scattered Clouds
1:53 PM 87.1 °F 39.0 °F 18% 29.88 in 10.0 mi South 15.0 mph - N/A   Scattered Clouds
2:53 PM 88.0 °F 37.9 °F 17% 29.85 in 10.0 mi South 11.5 mph - N/A   Scattered Clouds
3:53 PM 88.0 °F 37.0 °F 16% 29.83 in 10.0 mi Calm Calm - N/A   Mostly Cloudy
4:53 PM 87.1 °F 39.0 °F 18% 29.82 in 10.0 mi SSW 4.6 mph - N/A   Mostly Cloudy
5:53 PM 88.0 °F 36.0 °F 16% 29.81 in 10.0 mi South 16.1 mph - N/A   Mostly Cloudy
6:53 PM 84.9 °F 37.9 °F 19% 29.81 in 10.0 mi SSE 10.4 mph - N/A   Mostly Cloudy
7:53 PM 80.1 °F 39.9 °F 24% 29.80 in 10.0 mi South 4.6 mph - N/A   Mostly Cloudy
8:53 PM 77.0 °F 42.1 °F 29% 29.81 in 10.0 mi ESE 9.2 mph - N/A   Mostly Cloudy
9:53 PM 75.9 °F 41.0 °F 29% 29.80 in 10.0 mi SSE 9.2 mph - N/A   Mostly Cloudy
10:53 PM 78.1 °F 39.0 °F 25% 29.78 in 10.0 mi SE 12.7 mph - N/A   Mostly Cloudy
11:53 PM 77.0 °F 39.9 °F 26% 29.78 in 10.0 mi South 10.4 mph - N/A   Mostly Cloudy